Regional Weather Roundup
Issued by NWS Albany, NY

Home | Current Version | Previous Version | Text Only | Print | Product List | Glossary On
Versions: 1 2 3 4 5 6 7 8 9 10 11 12 13 14 15 16 17 18 19 20 21 22 23 24 25 26 27
000
ASUS41 KALY 221410
RWRALY

NEW YORK STATE HOURLY WEATHER ROUNDUP
NATIONAL WEATHER SERVICE ALBANY NY
1000 AM EDT TUE MAY 22 2018

NOTE: "FAIR" INDICATES FEW OR NO CLOUDS BELOW 12,000 FEET WITH NO
SIGNIFICANT WEATHER AND/OR NO OBSTRUCTIONS TO VISIBILITY.

NYZ032-033-038>043-046>054-057>066-NYZ062>081-082-084-221500-
EAST


CITY           SKY/WX    TMP DP  RH WIND       PRES   REMARKS
ALBANY         LGT RAIN  62  51  67 S7        30.11F
GLENS FALLS    LGT RAIN  57  52  83 CALM      30.12F
POUGHKEEPSIE   CLOUDY    63  55  75 SW5       30.14R
NEWBURGH       DRIZZLE   63  59  88 W9        30.17R
MONTGOMERY     LGT RAIN  62  58  86 SW5       30.15R
WHITE PLAINS   PTSUNNY   65  53  65 SE3       30.15F
ISLIP          CLOUDY    66  50  56 SE8       30.17F
NEW YORK CITY  LGT RAIN  68  52  56 S6        30.15F
CENTRAL PARK   LGT RAIN  68  53  58 CALM      30.18F
$$

NYZ005>009-017-018-044>046-055-056-221500-
CENTRAL


CITY           SKY/WX    TMP DP  RH WIND       PRES   REMARKS
FULTON         RAIN      57  54  89 VRB5      30.03F FOG
SYRACUSE       LGT RAIN  57  56  96 E10       30.04F
ROME           LGT RAIN  56  54  93 S5        30.13R
ELMIRA         CLOUDY    61  60  97 CALM      30.05F
BINGHAMTON     LGT RAIN  54  53  97 SE15      30.07F
$$

NYZ026>034-041>043-087-221500-
NORTH


CITY           SKY/WX    TMP DP  RH WIND       PRES   REMARKS
WATERTOWN      LGT RAIN  58  55  90 SE5       30.07S FOG
FORT DRUM      NOT AVBL
OGDENSBURG     FAIR      67  51  57 S7        30.05R
MASSENA        FAIR      67  51  56 NE3       30.05F
SARANAC LAKE   FAIR      60  48  64 W3        30.08F
PLATTSBURGH    FAIR      60  50  69 S7        30.07F
$$

NYZ001>004-010>016-019>021-085-221500-
WEST


CITY           SKY/WX    TMP DP  RH WIND       PRES   REMARKS
NIAGARA FALLS  LGT RAIN  63  59  87 SW7       29.97S FOG
BUFFALO        RAIN      62  61  96 SW13      29.98S
DUNKIRK        CLOUDY    64  62  93 SW9       29.99F
JAMESTOWN      CLOUDY    61  60  97 S9        30.03F
WELLSVILLE     CLOUDY    63  61  93 S5        30.06F
ROCHESTER      RAIN      57  57 100 S5        29.99F FOG
PENN YAN       LGT RAIN  59  56  89 SW7       30.03F
$$

             KEY
       WCI = WIND CHILL INDEX
       VSB = VISIBILITY
       HX  = HEAT INDEX
$$




USA.gov is the U.S. government's official web portal to all federal, state and local government web resources and services.